Terminal Aerodrome Forecast
Issued by NWS Twin Cities, MN

Home | Current Version | Previous Version | Graphics & Text | Print | Product List | Glossary On
Versions: 1 2 3 4 5 6 7 8 9 10 11 12 13 14 15 16 17 18 19 20 21 22 23 24 25 26 27 28 29 30 31 32 33 34
000
FTUS43 KMPX 022343
TAFMSP
TAF
KMSP 022343Z 0300/0406 08009KT P6SM FEW040
     FM030100 10005KT P6SM FEW150
     FM030400 11004KT 6SM BR FEW008 SCT150
     FM030600 11004KT 4SM BR OVC008
     FM031500 14006KT P6SM SCT010 BKN025
     FM031700 16010KT P6SM SCT040=

USA.gov is the U.S. government's official web portal to all federal, state and local government web resources and services.